Year,Month,Day,Hour,Minute,Value (Times are PST for temperature in C)
2008,08,31,00,00,11.20
2008,08,31,00,01,11.20
2008,08,31,00,02,11.20
2008,08,31,00,03,11.20
2008,08,31,00,04,11.30
2008,08,31,00,05,11.30
2008,08,31,00,06,11.30
2008,08,31,00,07,11.30
2008,08,31,00,08,11.30
2008,08,31,00,09,11.30
2008,08,31,00,10,11.30
2008,08,31,00,11,11.30
2008,08,31,00,12,11.30
2008,08,31,00,13,11.20
2008,08,31,00,14,11.20
2008,08,31,00,15,11.30
2008,08,31,00,16,11.30
2008,08,31,00,17,11.30
2008,08,31,00,18,11.30
2008,08,31,00,19,11.30
2008,08,31,00,20,11.30
2008,08,31,00,21,11.30
2008,08,31,00,22,11.30
2008,08,31,00,23,11.30
2008,08,31,00,24,11.30
2008,08,31,00,25,11.30
2008,08,31,00,26,11.30
2008,08,31,00,27,11.30
2008,08,31,00,28,11.30
2008,08,31,00,29,11.30
2008,08,31,00,30,11.20
2008,08,31,00,31,11.20
2008,08,31,00,32,11.20
2008,08,31,00,33,11.20
2008,08,31,00,34,11.20
2008,08,31,00,35,11.20
2008,08,31,00,36,11.20
2008,08,31,00,37,11.20
2008,08,31,00,38,11.20
2008,08,31,00,39,11.20
2008,08,31,00,40,11.20
2008,08,31,00,41,11.20
2008,08,31,00,42,11.20
2008,08,31,00,43,11.20
2008,08,31,00,44,11.20
2008,08,31,00,45,11.20
2008,08,31,00,46,11.20
2008,08,31,00,47,11.20
2008,08,31,00,48,11.20
2008,08,31,00,49,11.20
2008,08,31,00,50,11.20
2008,08,31,00,51,11.20
2008,08,31,00,52,11.20
2008,08,31,00,53,11.20
2008,08,31,00,54,11.20
2008,08,31,00,55,11.20
2008,08,31,00,56,11.20
2008,08,31,00,57,11.20
2008,08,31,00,58,11.20
2008,08,31,00,59,11.20
2008,08,31,01,00,11.20
2008,08,31,01,01,11.20
2008,08,31,01,02,11.20
2008,08,31,01,03,11.20
2008,08,31,01,04,11.20
2008,08,31,01,05,11.20
2008,08,31,01,06,11.20
2008,08,31,01,07,11.20
2008,08,31,01,08,11.20
2008,08,31,01,09,11.20
2008,08,31,01,10,11.20
2008,08,31,01,11,11.20
2008,08,31,01,12,11.20
2008,08,31,01,13,11.20
2008,08,31,01,14,11.20
2008,08,31,01,15,11.20
2008,08,31,01,16,11.20
2008,08,31,01,17,11.20
2008,08,31,01,18,11.20
2008,08,31,01,19,11.20
2008,08,31,01,20,11.20
2008,08,31,01,21,11.20
2008,08,31,01,22,11.20
2008,08,31,01,23,11.20
2008,08,31,01,24,11.20
2008,08,31,01,25,11.20
2008,08,31,01,26,11.10
2008,08,31,01,27,11.10
2008,08,31,01,28,11.10
2008,08,31,01,29,11.10
2008,08,31,01,30,11.10
2008,08,31,01,31,11.10
2008,08,31,01,32,11.10
2008,08,31,01,33,11.10
2008,08,31,01,34,11.10
2008,08,31,01,35,11.10
2008,08,31,01,36,11.10
2008,08,31,01,37,11.00
2008,08,31,01,38,10.90
2008,08,31,01,39,10.90
2008,08,31,01,40,10.90
2008,08,31,01,41,10.90
2008,08,31,01,42,10.90
2008,08,31,01,43,10.90
2008,08,31,01,44,10.90
2008,08,31,01,45,10.90
2008,08,31,01,46,10.80
2008,08,31,01,47,10.80
2008,08,31,01,48,10.80
2008,08,31,01,49,10.80
2008,08,31,01,50,10.80
2008,08,31,01,51,10.70
2008,08,31,01,52,10.70
2008,08,31,01,53,10.70
2008,08,31,01,54,10.70
2008,08,31,01,55,10.60
2008,08,31,01,56,10.60
2008,08,31,01,57,10.60
2008,08,31,01,58,10.60
2008,08,31,01,59,10.60
2008,08,31,02,00,10.60
2008,08,31,02,01,10.50
2008,08,31,02,02,10.40
2008,08,31,02,03,10.40
2008,08,31,02,04,10.40
2008,08,31,02,05,10.30
2008,08,31,02,06,10.30
2008,08,31,02,07,10.20
2008,08,31,02,08,10.20
2008,08,31,02,09,10.10
2008,08,31,02,10,10.10
2008,08,31,02,11,10.10
2008,08,31,02,12,10.10
2008,08,31,02,13,10.10
2008,08,31,02,14,10.10
2008,08,31,02,15,10.10
2008,08,31,02,16,10.10
2008,08,31,02,17,10.10
2008,08,31,02,18,10.10
2008,08,31,02,19,10.10
2008,08,31,02,20,10.10
2008,08,31,02,21,10.10
2008,08,31,02,22,10.10
2008,08,31,02,23,10.10
2008,08,31,02,24,10.10
2008,08,31,02,25,10.10
2008,08,31,02,26,10.10
2008,08,31,02,27,10.10
2008,08,31,02,28,10.10
2008,08,31,02,29,10.10
2008,08,31,02,30,10.10
2008,08,31,02,31,10.10
2008,08,31,02,32,10.10
2008,08,31,02,33,10.10
2008,08,31,02,34,10.00
2008,08,31,02,35,9.90
2008,08,31,02,36,9.90
2008,08,31,02,37,9.90
2008,08,31,02,38,9.90
2008,08,31,02,39,9.90
2008,08,31,02,40,9.90
2008,08,31,02,41,9.90
2008,08,31,02,42,9.90
2008,08,31,02,43,9.90
2008,08,31,02,44,9.90
2008,08,31,02,45,9.90
2008,08,31,02,46,9.90
2008,08,31,02,47,9.90
2008,08,31,02,48,9.90
2008,08,31,02,49,9.90
2008,08,31,02,50,9.80
2008,08,31,02,51,9.80
2008,08,31,02,52,9.80
2008,08,31,02,53,9.80
2008,08,31,02,54,9.80
2008,08,31,02,55,9.80
2008,08,31,02,56,9.70
2008,08,31,02,57,9.70
2008,08,31,02,58,9.70
2008,08,31,02,59,9.70
2008,08,31,03,00,9.70
2008,08,31,03,01,9.70
2008,08,31,03,02,9.70
2008,08,31,03,03,9.70
2008,08,31,03,04,9.70
2008,08,31,03,05,9.70
2008,08,31,03,06,9.70
2008,08,31,03,07,9.70
2008,08,31,03,08,9.70
2008,08,31,03,09,9.70
2008,08,31,03,10,9.70
2008,08,31,03,11,9.70
2008,08,31,03,12,9.70
2008,08,31,03,13,9.70
2008,08,31,03,14,9.70
2008,08,31,03,15,9.70
2008,08,31,03,16,9.70
2008,08,31,03,17,9.60
2008,08,31,03,18,9.60
2008,08,31,03,19,9.60
2008,08,31,03,20,9.60
2008,08,31,03,21,9.60
2008,08,31,03,22,9.70
2008,08,31,03,23,9.70
2008,08,31,03,24,9.70
2008,08,31,03,25,9.70
2008,08,31,03,26,9.70
2008,08,31,03,27,9.70
2008,08,31,03,28,9.70
2008,08,31,03,29,9.70
2008,08,31,03,30,9.70
2008,08,31,03,31,9.70
2008,08,31,03,32,9.70
2008,08,31,03,33,9.70
2008,08,31,03,34,9.70
2008,08,31,03,35,9.70
2008,08,31,03,36,9.70
2008,08,31,03,37,9.60
2008,08,31,03,38,9.50
2008,08,31,03,39,9.50
2008,08,31,03,40,9.50
2008,08,31,03,41,9.40
2008,08,31,03,42,9.40
2008,08,31,03,43,9.40
2008,08,31,03,44,9.40
2008,08,31,03,45,9.40
2008,08,31,03,46,9.40
2008,08,31,03,47,9.40
2008,08,31,03,48,9.40
2008,08,31,03,49,9.40
2008,08,31,03,50,9.40
2008,08,31,03,51,9.30
2008,08,31,03,52,9.30
2008,08,31,03,53,9.30
2008,08,31,03,54,9.20
2008,08,31,03,55,9.20
2008,08,31,03,56,9.20
2008,08,31,03,57,9.20
2008,08,31,03,58,9.20
2008,08,31,03,59,9.20
2008,08,31,04,00,9.20
2008,08,31,04,01,9.20
2008,08,31,04,02,9.20
2008,08,31,04,03,9.20
2008,08,31,04,04,9.20
2008,08,31,04,05,9.20
2008,08,31,04,07,9.20
2008,08,31,04,08,9.20
2008,08,31,04,11,9.20
2008,08,31,04,12,9.20
2008,08,31,04,13,9.20
2008,08,31,04,46,9.50
2008,08,31,05,13,9.10
2008,08,31,05,42,9.10
2008,08,31,06,07,9.00
2008,08,31,06,30,9.20
2008,08,31,06,56,9.10
2008,08,31,07,22,9.40
2008,08,31,07,50,10.10
2008,08,31,08,13,11.40
2008,08,31,08,34,11.80
2008,08,31,08,59,11.80
2008,08,31,09,29,12.10
2008,08,31,09,52,12.70
2008,08,31,10,16,13.00
2008,08,31,10,39,13.60
2008,08,31,11,05,14.30
2008,08,31,11,35,14.30
2008,08,31,11,47,14.20
2008,08,31,11,48,14.20
2008,08,31,11,49,14.10
2008,08,31,11,50,14.10
2008,08,31,11,51,14.10
2008,08,31,11,52,14.10
2008,08,31,11,53,14.10
2008,08,31,11,54,14.20
2008,08,31,11,55,14.20
2008,08,31,11,56,14.20
2008,08,31,11,57,14.10
2008,08,31,11,58,14.10
2008,08,31,11,59,14.10
2008,08,31,12,00,14.10
2008,08,31,12,01,14.10
2008,08,31,12,02,14.10
2008,08,31,12,03,14.20
2008,08,31,12,04,14.30
2008,08,31,12,05,14.40
2008,08,31,12,06,14.50
2008,08,31,12,07,14.50
2008,08,31,12,08,14.50
2008,08,31,12,09,14.50
2008,08,31,12,10,14.50
2008,08,31,12,11,14.50
2008,08,31,12,12,14.50
2008,08,31,12,13,14.40
2008,08,31,12,14,14.40
2008,08,31,12,15,14.40
2008,08,31,12,16,14.50
2008,08,31,12,17,14.60
2008,08,31,12,18,14.60
2008,08,31,12,19,14.60
2008,08,31,12,20,14.70
2008,08,31,12,21,14.70
2008,08,31,12,22,14.80
2008,08,31,12,23,14.80
2008,08,31,12,24,14.80
2008,08,31,12,25,14.80
2008,08,31,12,26,14.80
2008,08,31,12,27,14.80
2008,08,31,12,28,14.90
2008,08,31,12,29,14.90
2008,08,31,12,30,15.00
2008,08,31,12,31,15.00
2008,08,31,12,32,15.00
2008,08,31,12,33,15.10
2008,08,31,12,34,15.00
2008,08,31,12,35,15.00
2008,08,31,12,36,15.00
2008,08,31,12,37,15.10
2008,08,31,12,38,15.10
2008,08,31,12,39,15.10
2008,08,31,12,40,15.10
2008,08,31,12,41,15.10
2008,08,31,12,42,15.10
2008,08,31,12,43,15.10
2008,08,31,12,44,15.00
2008,08,31,12,45,15.00
2008,08,31,12,46,14.90
2008,08,31,12,47,14.80
2008,08,31,12,48,14.90
2008,08,31,12,49,15.00
2008,08,31,12,50,15.10
2008,08,31,12,51,15.20
2008,08,31,12,52,15.30
2008,08,31,12,53,15.30
2008,08,31,12,54,15.30
2008,08,31,12,55,15.30
2008,08,31,12,56,15.30
2008,08,31,12,57,15.30
2008,08,31,12,58,15.30
2008,08,31,12,59,15.30
2008,08,31,13,00,15.30
2008,08,31,13,01,15.30
2008,08,31,13,02,15.30
2008,08,31,13,03,15.30
2008,08,31,13,04,15.30
2008,08,31,13,05,15.30
2008,08,31,13,06,15.30
2008,08,31,13,07,15.30
2008,08,31,13,08,15.30
2008,08,31,13,09,15.30
2008,08,31,13,10,15.20
2008,08,31,13,11,15.20
2008,08,31,13,12,15.20
2008,08,31,13,13,15.10
2008,08,31,13,14,15.20
2008,08,31,13,15,15.10
2008,08,31,13,16,15.20
2008,08,31,13,17,15.10
2008,08,31,13,18,15.10
2008,08,31,13,19,15.20
2008,08,31,13,20,15.30
2008,08,31,13,21,15.30
2008,08,31,13,22,15.30
2008,08,31,13,23,15.30
2008,08,31,13,24,15.30
2008,08,31,13,25,15.30
2008,08,31,13,26,15.20
2008,08,31,13,27,15.20
2008,08,31,13,28,15.20
2008,08,31,13,29,15.10
2008,08,31,13,30,15.00
2008,08,31,13,31,15.00
2008,08,31,13,32,15.10
2008,08,31,13,33,15.00
2008,08,31,13,34,15.10
2008,08,31,13,35,15.10
2008,08,31,13,36,15.10
2008,08,31,13,37,15.20
2008,08,31,13,38,15.30
2008,08,31,13,39,15.40
2008,08,31,13,40,15.50
2008,08,31,13,41,15.50
2008,08,31,13,42,15.60
2008,08,31,13,43,15.60
2008,08,31,13,44,15.50
2008,08,31,13,45,15.50
2008,08,31,13,46,15.60
2008,08,31,13,47,15.50
2008,08,31,13,48,15.60
2008,08,31,13,49,15.60
2008,08,31,13,50,15.60
2008,08,31,13,51,15.60
2008,08,31,13,52,15.60
2008,08,31,13,53,15.60
2008,08,31,13,54,15.60
2008,08,31,13,55,15.60
2008,08,31,13,56,15.60
2008,08,31,13,57,15.60
2008,08,31,13,58,15.60
2008,08,31,13,59,15.50
2008,08,31,14,00,15.50
2008,08,31,14,01,15.50
2008,08,31,14,02,15.60
2008,08,31,14,03,15.60
2008,08,31,14,04,15.70
2008,08,31,14,05,15.70
2008,08,31,14,06,15.70
2008,08,31,14,07,15.60
2008,08,31,14,08,15.60
2008,08,31,14,09,15.60
2008,08,31,14,10,15.50
2008,08,31,14,11,15.50
2008,08,31,14,12,15.50
2008,08,31,14,13,15.40
2008,08,31,14,14,15.40
2008,08,31,14,15,15.40
2008,08,31,14,16,15.40
2008,08,31,14,17,15.30
2008,08,31,14,18,15.30
2008,08,31,14,19,15.30
2008,08,31,14,20,15.20
2008,08,31,14,21,15.20
2008,08,31,14,22,15.20
2008,08,31,14,23,15.20
2008,08,31,14,24,15.20
2008,08,31,14,25,15.30
2008,08,31,14,26,15.30
2008,08,31,14,27,15.30
2008,08,31,14,28,15.30
2008,08,31,14,29,15.30
2008,08,31,14,30,15.30
2008,08,31,14,31,15.30
2008,08,31,14,32,15.40
2008,08,31,14,33,15.50
2008,08,31,14,34,15.60
2008,08,31,14,35,15.70
2008,08,31,14,36,15.80
2008,08,31,14,37,15.70
2008,08,31,14,38,15.60
2008,08,31,14,39,15.60
2008,08,31,14,40,15.50
2008,08,31,14,41,15.40
2008,08,31,14,42,15.30
2008,08,31,14,43,15.20
2008,08,31,14,44,15.20
2008,08,31,14,45,15.20
2008,08,31,14,46,15.20
2008,08,31,14,47,15.10
2008,08,31,14,48,15.10
2008,08,31,14,49,15.10
2008,08,31,14,50,15.10
2008,08,31,14,51,15.10
2008,08,31,14,52,15.10
2008,08,31,14,53,15.20
2008,08,31,14,54,15.20
2008,08,31,14,55,15.30
2008,08,31,14,56,15.30
2008,08,31,14,57,15.30
2008,08,31,14,58,15.20
2008,08,31,14,59,15.20
2008,08,31,15,00,15.10
2008,08,31,15,01,15.10
2008,08,31,15,02,15.10
2008,08,31,15,03,15.10
2008,08,31,15,04,15.10
2008,08,31,15,05,15.20
2008,08,31,15,06,15.10
2008,08,31,15,07,15.10
2008,08,31,15,08,15.10
2008,08,31,15,09,15.10
2008,08,31,15,10,15.10
2008,08,31,15,11,15.20
2008,08,31,15,12,15.20
2008,08,31,15,13,15.20
2008,08,31,15,14,15.30
2008,08,31,15,15,15.30
2008,08,31,15,16,15.30
2008,08,31,15,17,15.30
2008,08,31,15,18,15.30
2008,08,31,15,19,15.30
2008,08,31,15,20,15.30
2008,08,31,15,21,15.30
2008,08,31,15,22,15.30
2008,08,31,15,23,15.30
2008,08,31,15,24,15.30
2008,08,31,15,25,15.40
2008,08,31,15,26,15.50
2008,08,31,15,27,15.50
2008,08,31,15,28,15.40
2008,08,31,15,29,15.40
2008,08,31,15,30,15.30
2008,08,31,15,31,15.40
2008,08,31,15,32,15.40
2008,08,31,15,33,15.30
2008,08,31,15,34,15.30
2008,08,31,15,35,15.30
2008,08,31,15,36,15.30
2008,08,31,15,37,15.30
2008,08,31,15,38,15.40
2008,08,31,15,39,15.50
2008,08,31,15,40,15.50
2008,08,31,15,41,15.60
2008,08,31,15,42,15.60
2008,08,31,15,43,15.60
2008,08,31,15,44,15.60
2008,08,31,15,45,15.60
2008,08,31,15,46,15.70
2008,08,31,15,47,15.80
2008,08,31,15,48,15.80
2008,08,31,15,49,15.70
2008,08,31,15,50,15.70
2008,08,31,15,51,15.60
2008,08,31,15,52,15.50
2008,08,31,15,53,15.50
2008,08,31,15,54,15.40
2008,08,31,15,55,15.40
2008,08,31,15,56,15.50
2008,08,31,15,57,15.60
2008,08,31,15,58,15.60
2008,08,31,15,59,15.70
2008,08,31,16,00,15.70
2008,08,31,16,01,15.70
2008,08,31,16,02,15.70
2008,08,31,16,03,15.60
2008,08,31,16,04,15.60
2008,08,31,16,05,15.50
2008,08,31,16,06,15.40
2008,08,31,16,07,15.50
2008,08,31,16,08,15.50
2008,08,31,16,09,15.50
2008,08,31,16,10,15.70
2008,08,31,16,11,15.80
2008,08,31,16,12,15.90
2008,08,31,16,13,15.90
2008,08,31,16,14,15.90
2008,08,31,16,15,16.00
2008,08,31,16,16,16.10
2008,08,31,16,17,16.10
2008,08,31,16,18,16.10
2008,08,31,16,19,16.20
2008,08,31,16,20,16.30
2008,08,31,16,21,16.40
2008,08,31,16,22,16.50
2008,08,31,16,23,16.60
2008,08,31,16,24,16.70
2008,08,31,16,25,16.80
2008,08,31,16,26,16.80
2008,08,31,16,27,16.90
2008,08,31,16,28,17.00
2008,08,31,16,29,17.10
2008,08,31,16,30,17.30
2008,08,31,16,31,17.40
2008,08,31,16,32,17.50
2008,08,31,16,33,17.60
2008,08,31,16,34,17.60
2008,08,31,16,35,17.70
2008,08,31,16,36,17.70
2008,08,31,16,37,17.60
2008,08,31,16,38,17.60
2008,08,31,16,39,17.50
2008,08,31,16,40,17.50
2008,08,31,16,41,17.40
2008,08,31,16,42,17.30
2008,08,31,16,43,17.30
2008,08,31,16,44,17.30
2008,08,31,16,45,17.30
2008,08,31,16,46,17.30
2008,08,31,16,47,17.30
2008,08,31,16,48,17.30
2008,08,31,16,49,17.30
2008,08,31,16,50,17.30
2008,08,31,16,51,17.20
2008,08,31,16,52,17.20
2008,08,31,16,53,17.30
2008,08,31,16,54,17.30
2008,08,31,16,55,17.30
2008,08,31,16,56,17.40
2008,08,31,16,57,17.40
2008,08,31,16,58,17.40
2008,08,31,16,59,17.40
2008,08,31,17,00,17.40
2008,08,31,17,01,17.40
2008,08,31,17,02,17.30
2008,08,31,17,03,17.30
2008,08,31,17,04,17.20
2008,08,31,17,05,17.20
2008,08,31,17,06,17.20
2008,08,31,17,07,17.20
2008,08,31,17,08,17.30
2008,08,31,17,09,17.30
2008,08,31,17,10,17.30
2008,08,31,17,11,17.30
2008,08,31,17,12,17.20
2008,08,31,17,13,17.10
2008,08,31,17,14,17.10
2008,08,31,17,15,17.10
2008,08,31,17,16,17.10
2008,08,31,17,17,17.10
2008,08,31,17,18,17.10
2008,08,31,17,19,17.20
2008,08,31,17,20,17.20
2008,08,31,17,21,17.20
2008,08,31,17,22,17.20
2008,08,31,17,23,17.20
2008,08,31,17,24,17.10
2008,08,31,17,25,17.00
2008,08,31,17,26,17.00
2008,08,31,17,27,17.00
2008,08,31,17,28,17.00
2008,08,31,17,29,17.00
2008,08,31,17,30,17.00
2008,08,31,17,31,17.00
2008,08,31,17,32,16.90
2008,08,31,17,33,16.80
2008,08,31,17,34,16.70
2008,08,31,17,35,16.60
2008,08,31,17,36,16.60
2008,08,31,17,37,16.60
2008,08,31,17,38,16.60
2008,08,31,17,39,16.60
2008,08,31,17,40,16.60
2008,08,31,17,41,16.50
2008,08,31,17,42,16.40
2008,08,31,17,43,16.40
2008,08,31,17,44,16.40
2008,08,31,17,45,16.40
2008,08,31,17,46,16.40
2008,08,31,17,47,16.40
2008,08,31,17,48,16.40
2008,08,31,17,49,16.40
2008,08,31,17,50,16.40
2008,08,31,17,51,16.40
2008,08,31,17,52,16.50
2008,08,31,17,53,16.60
2008,08,31,17,54,16.60
2008,08,31,17,55,16.70
2008,08,31,17,56,16.70
2008,08,31,17,57,16.60
2008,08,31,17,58,16.60
2008,08,31,17,59,16.70
2008,08,31,18,00,16.70
2008,08,31,18,01,16.80
2008,08,31,18,02,16.90
2008,08,31,18,03,17.00
2008,08,31,18,04,17.00
2008,08,31,18,05,17.00
2008,08,31,18,06,17.10
2008,08,31,18,07,17.10
2008,08,31,18,08,17.20
2008,08,31,18,09,17.30
2008,08,31,18,10,17.20
2008,08,31,18,11,17.20
2008,08,31,18,12,17.10
2008,08,31,18,13,17.10
2008,08,31,18,14,17.10
2008,08,31,18,15,17.00
2008,08,31,18,16,17.00
2008,08,31,18,17,16.90
2008,08,31,18,18,16.90
2008,08,31,18,19,16.80
2008,08,31,18,20,16.80
2008,08,31,18,21,16.90
2008,08,31,18,22,16.90
2008,08,31,18,23,16.90
2008,08,31,18,24,16.90
2008,08,31,18,25,16.90
2008,08,31,18,26,16.90
2008,08,31,18,27,16.90
2008,08,31,18,28,16.90
2008,08,31,18,29,16.90
2008,08,31,18,30,16.90
2008,08,31,18,31,16.80
2008,08,31,18,32,16.80
2008,08,31,18,33,16.80
2008,08,31,18,34,16.80
2008,08,31,18,35,16.90
2008,08,31,18,36,16.90
2008,08,31,18,37,16.80
2008,08,31,18,38,16.80
2008,08,31,18,39,16.80
2008,08,31,18,40,16.70
2008,08,31,18,41,16.70
2008,08,31,18,42,16.70
2008,08,31,18,43,16.70
2008,08,31,18,44,16.70
2008,08,31,18,45,16.70
2008,08,31,18,46,16.70
2008,08,31,18,47,16.70
2008,08,31,18,48,16.70
2008,08,31,18,49,16.70
2008,08,31,18,50,16.70
2008,08,31,18,51,16.70
2008,08,31,18,52,16.70
2008,08,31,18,53,16.70
2008,08,31,18,54,16.60
2008,08,31,18,55,16.60
2008,08,31,18,56,16.50
2008,08,31,18,57,16.40
2008,08,31,18,58,16.40
2008,08,31,18,59,16.40
2008,08,31,19,00,16.40
2008,08,31,19,01,16.30
2008,08,31,19,02,16.30
2008,08,31,19,03,16.30
2008,08,31,19,04,16.30
2008,08,31,19,05,16.20
2008,08,31,19,06,16.30
2008,08,31,19,07,16.30
2008,08,31,19,08,16.30
2008,08,31,19,09,16.30
2008,08,31,19,10,16.30
2008,08,31,19,11,16.30
2008,08,31,19,12,16.30
2008,08,31,19,13,16.30
2008,08,31,19,14,16.30
2008,08,31,19,15,16.40
2008,08,31,19,16,16.40
2008,08,31,19,17,16.40
2008,08,31,19,18,16.40
2008,08,31,19,19,16.40
2008,08,31,19,20,16.40
2008,08,31,19,21,16.40
2008,08,31,19,22,16.40
2008,08,31,19,23,16.40
2008,08,31,19,24,16.40
2008,08,31,19,25,16.40
2008,08,31,19,26,16.40
2008,08,31,19,27,16.40
2008,08,31,19,28,16.30
2008,08,31,19,29,16.30
2008,08,31,19,30,16.30
2008,08,31,19,31,16.20
2008,08,31,19,32,16.20
2008,08,31,19,33,16.20
2008,08,31,19,34,16.20
2008,08,31,19,35,16.20
2008,08,31,19,36,16.10
2008,08,31,19,37,16.10
2008,08,31,19,38,16.00
2008,08,31,19,39,15.90
2008,08,31,19,40,15.90
2008,08,31,19,41,15.80
2008,08,31,19,42,15.80
2008,08,31,19,43,15.80
2008,08,31,19,44,15.80
2008,08,31,19,45,15.70
2008,08,31,19,46,15.70
2008,08,31,19,47,15.70
2008,08,31,19,48,15.70
2008,08,31,19,49,15.60
2008,08,31,19,50,15.60
2008,08,31,19,51,15.60
2008,08,31,19,52,15.60
2008,08,31,19,53,15.60
2008,08,31,19,54,15.60
2008,08,31,19,55,15.50
2008,08,31,19,56,15.50
2008,08,31,19,57,15.40
2008,08,31,19,58,15.40
2008,08,31,19,59,15.40
2008,08,31,20,00,15.30
2008,08,31,20,01,15.30
2008,08,31,20,02,15.30
2008,08,31,20,03,15.20
2008,08,31,20,04,15.20
2008,08,31,20,05,15.10
2008,08,31,20,06,15.10
2008,08,31,20,07,15.00
2008,08,31,20,08,15.00
2008,08,31,20,09,14.90
2008,08,31,20,10,14.90
2008,08,31,20,11,14.90
2008,08,31,20,12,14.80
2008,08,31,20,13,14.80
2008,08,31,20,14,14.80
2008,08,31,20,15,14.80
2008,08,31,20,16,14.70
2008,08,31,20,17,14.70
2008,08,31,20,18,14.70
2008,08,31,20,19,14.60
2008,08,31,20,20,14.60
2008,08,31,20,21,14.60
2008,08,31,20,22,14.60
2008,08,31,20,23,14.60
2008,08,31,20,24,14.50
2008,08,31,20,25,14.50
2008,08,31,20,26,14.50
2008,08,31,20,27,14.50
2008,08,31,20,28,14.40
2008,08,31,20,29,14.40
2008,08,31,20,30,14.40
2008,08,31,20,31,14.40
2008,08,31,20,32,14.30
2008,08,31,20,33,14.30
2008,08,31,20,34,14.30
2008,08,31,20,35,14.20
2008,08,31,20,36,14.20
2008,08,31,20,37,14.20
2008,08,31,20,38,14.20
2008,08,31,20,39,14.20
2008,08,31,20,40,14.20
2008,08,31,20,41,14.10
2008,08,31,20,42,14.10
2008,08,31,20,43,14.10
2008,08,31,20,44,14.00
2008,08,31,20,45,14.00
2008,08,31,20,46,13.90
2008,08,31,20,47,13.90
2008,08,31,20,48,13.90
2008,08,31,20,49,13.80
2008,08,31,20,50,13.80
2008,08,31,20,51,13.80
2008,08,31,20,52,13.80
2008,08,31,20,53,13.70
2008,08,31,20,54,13.70
2008,08,31,20,55,13.70
2008,08,31,20,56,13.70
2008,08,31,20,57,13.70
2008,08,31,20,58,13.70
2008,08,31,20,59,13.70
2008,08,31,21,00,13.60
2008,08,31,21,01,13.60
2008,08,31,21,02,13.60
2008,08,31,21,03,13.60
2008,08,31,21,04,13.60
2008,08,31,21,05,13.60
2008,08,31,21,06,13.60
2008,08,31,21,07,13.60
2008,08,31,21,08,13.50
2008,08,31,21,09,13.50
2008,08,31,21,10,13.50
2008,08,31,21,11,13.50
2008,08,31,21,12,13.40
2008,08,31,21,13,13.40
2008,08,31,21,14,13.40
2008,08,31,21,15,13.40
2008,08,31,21,16,13.30
2008,08,31,21,17,13.30
2008,08,31,21,18,13.30
2008,08,31,21,19,13.30
2008,08,31,21,20,13.30
2008,08,31,21,21,13.30
2008,08,31,21,22,13.30
2008,08,31,21,23,13.30
2008,08,31,21,24,13.30
2008,08,31,21,25,13.30
2008,08,31,21,26,13.30
2008,08,31,21,27,13.30
2008,08,31,21,28,13.30
2008,08,31,21,29,13.20
2008,08,31,21,30,13.20
2008,08,31,21,31,13.20
2008,08,31,21,32,13.20
2008,08,31,21,33,13.10
2008,08,31,21,34,13.10
2008,08,31,21,35,13.10
2008,08,31,21,36,13.10
2008,08,31,21,37,13.10
2008,08,31,21,38,13.10
2008,08,31,21,39,13.10
2008,08,31,21,40,13.10
2008,08,31,21,41,13.00
2008,08,31,21,42,13.00
2008,08,31,21,43,13.00
2008,08,31,21,44,13.00
2008,08,31,21,45,13.00
2008,08,31,21,46,13.00
2008,08,31,21,47,13.00
2008,08,31,21,48,13.00
2008,08,31,21,49,13.00
2008,08,31,21,50,13.00
2008,08,31,21,51,12.90
2008,08,31,21,52,12.90
2008,08,31,21,53,12.90
2008,08,31,21,54,12.90
2008,08,31,21,55,12.80
2008,08,31,21,56,12.80
2008,08,31,21,57,12.80
2008,08,31,21,58,12.80
2008,08,31,21,59,12.80
2008,08,31,22,00,12.80
2008,08,31,22,01,12.80
2008,08,31,22,02,12.80
2008,08,31,22,03,12.80
2008,08,31,22,04,12.80
2008,08,31,22,05,12.80
2008,08,31,22,06,12.80
2008,08,31,22,07,12.80
2008,08,31,22,08,12.80
2008,08,31,22,09,12.80
2008,08,31,22,10,12.80
2008,08,31,22,11,12.80
2008,08,31,22,12,12.80
2008,08,31,22,13,12.80
2008,08,31,22,14,12.80
2008,08,31,22,15,12.80
2008,08,31,22,16,12.80
2008,08,31,22,17,12.80
2008,08,31,22,18,12.70
2008,08,31,22,19,12.70
2008,08,31,22,20,12.70
2008,08,31,22,21,12.60
2008,08,31,22,22,12.60
2008,08,31,22,23,12.60
2008,08,31,22,24,12.60
2008,08,31,22,25,12.60
2008,08,31,22,26,12.60
2008,08,31,22,27,12.50
2008,08,31,22,28,12.50
2008,08,31,22,29,12.50
2008,08,31,22,30,12.50
2008,08,31,22,31,12.50
2008,08,31,22,32,12.50
2008,08,31,22,33,12.50
2008,08,31,22,34,12.50
2008,08,31,22,35,12.40
2008,08,31,22,36,12.40
2008,08,31,22,37,12.40
2008,08,31,22,38,12.40
2008,08,31,22,39,12.40
2008,08,31,22,40,12.40
2008,08,31,22,41,12.40
2008,08,31,22,42,12.30
2008,08,31,22,43,12.30
2008,08,31,22,44,12.30
2008,08,31,22,45,12.30
2008,08,31,22,46,12.30
2008,08,31,22,47,12.30
2008,08,31,22,48,12.30
2008,08,31,22,49,12.30
2008,08,31,22,50,12.30
2008,08,31,22,51,12.30
2008,08,31,22,52,12.30
2008,08,31,22,53,12.30
2008,08,31,22,54,12.30
2008,08,31,22,55,12.30
2008,08,31,22,56,12.30
2008,08,31,22,57,12.30
2008,08,31,22,58,12.20
2008,08,31,22,59,12.20
2008,08,31,23,00,12.20
2008,08,31,23,01,12.10
2008,08,31,23,02,12.10
2008,08,31,23,03,12.10
2008,08,31,23,04,12.10
2008,08,31,23,05,12.10
2008,08,31,23,06,12.10
2008,08,31,23,07,12.10
2008,08,31,23,08,12.10
2008,08,31,23,09,12.00
2008,08,31,23,10,12.00
2008,08,31,23,11,12.00
2008,08,31,23,12,12.00
2008,08,31,23,13,12.00
2008,08,31,23,14,11.90
2008,08,31,23,15,11.90
2008,08,31,23,16,11.90
2008,08,31,23,17,11.90
2008,08,31,23,18,11.90
2008,08,31,23,19,11.90
2008,08,31,23,20,11.90
2008,08,31,23,21,11.90
2008,08,31,23,22,11.90
2008,08,31,23,23,11.90
2008,08,31,23,24,11.90
2008,08,31,23,25,11.80
2008,08,31,23,26,11.80
2008,08,31,23,27,11.80
2008,08,31,23,28,11.80
2008,08,31,23,29,11.80
2008,08,31,23,30,11.80
2008,08,31,23,31,11.80
2008,08,31,23,32,11.80
2008,08,31,23,33,11.80
2008,08,31,23,34,11.80
2008,08,31,23,35,11.80
2008,08,31,23,36,11.70
2008,08,31,23,37,11.70
2008,08,31,23,38,11.70
2008,08,31,23,39,11.60
2008,08,31,23,40,11.60
2008,08,31,23,41,11.60
2008,08,31,23,42,11.60
2008,08,31,23,43,11.60
2008,08,31,23,44,11.60
2008,08,31,23,45,11.60
2008,08,31,23,46,11.60
2008,08,31,23,47,11.60
2008,08,31,23,48,11.60
2008,08,31,23,49,11.60
2008,08,31,23,50,11.60
2008,08,31,23,51,11.60
2008,08,31,23,52,11.60
2008,08,31,23,53,11.60
2008,08,31,23,54,11.60
2008,08,31,23,55,11.60
2008,08,31,23,56,11.60
2008,08,31,23,57,11.60
2008,08,31,23,58,11.60
2008,08,31,23,59,11.60
